Location: Bergfeld
(52.0500°N, 11.7833°E)
Time: 09:00:54
(UTC+00:00)

STARLINK-1153 - Pass Details

Date: 17 February 2020
Orbit: 378 x 381 km, 53.0° (Epoch: 28 March)

Event Time Altitude Azimuth Distance (km) Brightness Sun altitude
Exits shadow 03:24:30 16° 78° (ENE) 1,114 6.0 -28.2°
Drops below altitude 10° 03:25:14 10° 77° (ENE) 1,407 6.7 -28.1°
Enters shadow 04:20:29 -70° 264° (W) 12,367 10.5 -19.8°
Maximum altitude 04:58:01 72° 1° (N) 408 2.9 -14.0°
